sat.trackr.live / text

‹ back to catalog

STARLINK-2734

NORAD 48657 · 2021-044V

PAYLOAD ACTIVE UNKNOWN

§ Identity

Operator
Country
US
Launch date
2021-05-26
Launch site
AFETR
Launch vehicle
Mass (kg)
RCS (m²)

Purposes: comms

External: N2YO · Heavens-Above · Gunter

§ Orbital elements

Epoch: 2026-09-13T04:20:48.907104Z

Period
94.01 min
Inclination
53.1611°
Eccentricity
0.0001393
Mean motion
15.31704658 rev/d
Perigee alt
469.8 km
Apogee alt
471.7 km
Semi-major
6,848.9 km
B*
7.3236e-5
RAAN
321.4189°
Arg perigee
92.0969°
Mean anomaly
268.0192°
Rev number
29,255

§ Raw data

STARLINK-27341 48657U 21044V   26256.18112161  .00001908  00000+0  73236-4 0  99952 48657  53.1611 321.4189 0001393  92.0969 268.0192 15.31704658292559

JSON: /api/v1/satellites/48657 · /tle

For live sub-satellite position, see the globe view (requires WebGL).

§ Visibility from observer

Set your observer location to see the next 7 days of passes ≥ 10°. The values pass through the URL so the page stays shareable.

No JS? Fill the form by hand. The geolocation button needs JavaScript.